Simultaneous Nadir Overpasses (SNOs) Predictions

Prediction of SNOs between GOES-17 and NPP Satellite Orbit:

Table of predicted SNOs for the next 14.0 days since TLE Epoch: 11/4/2023
Index Date Time (GOES-17) GOES-17 Lat,Lon NPP Lat,Lon Distance(km) Time Diff (sec)
1 11/04/2023 20:18:00 0.00,-104.65 0.42,-102.82 209.11 80
2 11/06/2023 08:39:48 -0.00,-104.67 0.74,-108.10 389.59 80
3 11/07/2023 08:18:23 -0.00,-104.67 -0.27,-103.57 126.44 80
4 11/08/2023 20:40:20 0.00,-104.65 -0.92,-108.87 481.00 80
5 11/09/2023 20:24:15 0.00,-104.65 0.09,-104.34 35.51 80
6 11/12/2023 08:27:18 0.00,-104.67 0.09,-105.08 46.37 80
7 11/13/2023 08:05:54 0.00,-104.67 -0.94,-100.55 469.63 80
8 11/14/2023 20:27:49 -0.01,-104.64 -0.31,-105.85 138.28 80
9 11/15/2023 20:11:44 -0.02,-104.64 0.72,-101.32 377.84 80
10 11/17/2023 08:33:32 0.02,-104.66 0.47,-106.59 220.55 80
